Location: Quaker Farms
(41.4276°N, 73.1557°W)
Time: 14:04:30
(UTC+00:00)

X-37B - Visible Passes

Search period start: 14 May 2021 00:00
Search period end: 24 May 2021 00:00
Orbit: 386 x 389 km, 45.0° (Epoch: 08 May)

Date Brightness Start Highest point End Pass type
(mag) Time Alt. Az. Time Alt. Az. Time Alt. Az.
14 May 1.9 01:51:27 10° W 01:54:12 27° SSW 01:54:18 27° SSW visible
15 May 1.2 00:52:52 10° WNW 00:55:56 47° SSW 00:58:28 14° SE visible
16 May 2.8 01:31:56 10° WSW 01:33:52 15° SW 01:34:57 13° SSW visible
17 May 2.2 00:32:56 10° W 00:35:41 26° SSW 00:38:25 10° SSE visible
